This is the latest recevied weather packets stored in our database for station/object K3MV-13. If no packets are shown the sender has not sent any weather packets the latest 10 day(s).
| Time | Temp. | Humidity | Pressure | Rain* | Wind** | Luminosity | Snow |
|---|---|---|---|---|---|---|---|
| 1777509059 | 12.22° C | 95% | 1008.2 hPa | 0 mm | - | 0 W/m² | - |
| 1777508756 | 12.78° C | 95% | 1008.2 hPa | 0 mm | - | 0 W/m² | - |
| 1777508453 | 12.78° C | 95% | 1008.4 hPa | 0 mm | - | 0 W/m² | - |
| 1777508150 | 12.78° C | 95% | 1008 hPa | 0 mm | - | 0 W/m² | - |
| 1777507846 | 12.78° C | 95% | 1007.8 hPa | 0 mm | - | 2 W/m² | - |
| 1777507544 | 12.78° C | 95% | 1007.5 hPa | 0 mm | - | 3 W/m² | - |
| 1777506938 | 12.78° C | 95% | 1007.8 hPa | 0 mm | - | 3 W/m² | - |
| 1777506635 | 13.33° C | 95% | 1007.8 hPa | 0 mm | - | 6 W/m² | - |
| 1777502386 | 13.33° C | 96% | 1007.8 hPa | 0 mm | - | 27 W/m² | - |
| 1777501174 | 13.33° C | 96% | 1007 hPa | 0 mm | - | 31 W/m² | - |
| 1777500569 | 13.89° C | 96% | 1006.8 hPa | 3.05 mm | - | 51 W/m² | - |
| 1777498447 | 13.89° C | 96% | 1006.4 hPa | 0 mm | - | 33 W/m² | - |
| 1777498143 | 13.89° C | 96% | 1006.6 hPa | 1.78 mm | - | 36 W/m² | - |
| 1777497841 | 13.89° C | 96% | 1006.4 hPa | 1.78 mm | - | 75 W/m² | - |
| 1777497536 | 13.89° C | 96% | 1006.5 hPa | 0 mm | - | 106 W/m² | - |
| 1777497233 | 13.89° C | 96% | 1006.4 hPa | 3.05 mm | - | 51 W/m² | - |
| 1777496929 | 13.89° C | 96% | 1006.1 hPa | 6.1 mm | - | 84 W/m² | - |
| 1777496627 | 13.89° C | 96% | 1006.3 hPa | 10.67 mm | - | 82 W/m² | - |
| 1777496323 | 13.89° C | 96% | 1006.5 hPa | 14.99 mm | - | 33 W/m² | - |
| 1777495412 | 13.89° C | 95% | 1006.2 hPa | 3.05 mm | - | 13 W/m² | - |
| 1777495108 | 13.89° C | 95% | 1006.1 hPa | 3.05 mm | - | 44 W/m² | - |
| 1777494805 | 13.89° C | 95% | 1006.5 hPa | 6.1 mm | - | 59 W/m² | - |
| 1777494502 | 13.89° C | 95% | 1006.6 hPa | 10.67 mm | - | 38 W/m² | - |
| 1777494200 | 13.89° C | 95% | 1006.4 hPa | 11.94 mm | - | 24 W/m² | - |
| 1777493896 | 13.89° C | 94% | 1006.5 hPa | 10.67 mm | - | 40 W/m² | - |
* Rain latest hour (hover to see other rain measurements)
** Current wind speed in m/s (hover to see current wind gust speed)